contact:dominique.lefevre@mio.osupytheas.fr, maurice.libes@osupytheas.fr, didier.mallarino@osupytheas.fr
Project:EMSO http://www.emso-fr.org/EMSO-France
Depth: 2436.0 m
Title:EMSO Ligure Ouest : Data MII capteur AQUADOPP
Date,Latitude,Longitude,X_East,Y_North,Z_Up,Amplitude_X,Amplitude_Y,Amplitude_Z,Batterie,SoundSpeed,Heading,Pitch,Roll,Pressure,TIS,Speed,Direction
, degrees North, degrees East, m.s-1, m.s-1,m.s-1, 1, 1, 1, Volt, m.s-1, degree, degree, degree, dbar, degree_C, m.s-1, degree
2020-05-15T00:04:03,42.805,6.029,0.023,0.01,0.024,104.0,107.0,101.0,13.4,1505.3,326.3,-0.7,1.9,2470.418,13.31,0.025,66.5
2020-05-15T00:07:03,42.805,6.029,0.016,0.022,-0.008,104.0,107.0,102.0,13.3,1505.3,327.6,-0.7,1.9,2470.438,13.32,0.027,36.0
2020-05-15T00:10:03,42.805,6.029,0.025,0.043,-0.015,104.0,108.0,101.0,13.4,1505.3,327.5,-0.7,1.8,2470.415,13.33,0.049,30.2
2020-05-15T00:13:03,42.805,6.029,0.028,0.036,0.0,103.0,107.0,102.0,13.4,1505.3,328.4,-0.7,1.9,2470.394,13.33,0.045,37.9
2020-05-15T00:16:03,42.805,6.029,0.01,0.044,-0.027,105.0,108.0,102.0,13.4,1505.3,324.9,-0.7,1.8,2470.408,13.33,0.045,12.8
2020-05-15T00:19:03,42.805,6.029,0.008,0.037,0.014,104.0,107.0,101.0,13.4,1505.3,325.2,-0.7,1.8,2470.421,13.33,0.037,12.2
2020-05-15T00:22:03,42.805,6.029,0.003,0.027,-0.015,104.0,108.0,102.0,13.3,1505.3,324.9,-0.7,1.8,2470.395,13.33,0.027,6.3
2020-05-15T00:25:03,42.805,6.029,0.013,0.014,-0.006,104.0,108.0,101.0,13.3,1505.3,325.2,-0.7,1.8,2470.436,13.33,0.019,42.9
2020-05-15T00:28:03,42.805,6.029,0.036,0.04,0.021,106.0,108.0,102.0,13.3,1505.3,325.8,-0.7,1.8,2470.425,13.33,0.053,42.0
2020-05-15T00:31:03,42.805,6.029,0.03,0.032,-0.017,105.0,106.0,101.0,13.3,1505.3,326.2,-0.7,1.8,2470.399,13.33,0.043,43.1
2020-05-15T00:34:03,42.805,6.029,0.022,0.021,-0.024,105.0,107.0,102.0,13.4,1505.3,326.3,-0.7,1.8,2470.445,13.33,0.03,46.3
2020-05-15T00:37:03,42.805,6.029,0.024,0.043,0.002,105.0,107.0,101.0,13.4,1505.3,324.6,-0.7,1.8,2470.388,13.33,0.049,29.2
2020-05-15T00:40:03,42.805,6.029,0.01,0.032,0.016,105.0,107.0,102.0,13.4,1505.3,324.8,-0.7,1.8,2470.411,13.33,0.033,17.4
2020-05-15T00:43:03,42.805,6.029,0.016,0.037,-0.042,104.0,108.0,101.0,13.4,1505.3,325.6,-0.7,1.9,2470.445,13.33,0.04,23.4
2020-05-15T00:46:03,42.805,6.029,0.011,0.038,-0.029,104.0,107.0,103.0,13.3,1505.3,326.8,-0.7,1.8,2470.364,13.33,0.039,16.1
2020-05-15T00:49:03,42.805,6.029,0.038,0.037,0.021,105.0,108.0,101.0,13.3,1505.3,324.9,-0.7,1.8,2470.401,13.33,0.053,45.8
2020-05-15T00:52:03,42.805,6.029,0.0,0.044,-0.006,104.0,108.0,101.0,13.4,1505.3,327.0,-0.7,1.9,2470.399,13.33,0.044,0.0
2020-05-15T00:55:03,42.805,6.029,0.006,0.022,0.001,105.0,109.0,103.0,13.4,1505.3,325.1,-0.7,1.8,2470.376,13.33,0.022,15.3
2020-05-15T00:58:03,42.805,6.029,0.006,0.05,-0.007,105.0,105.0,101.0,13.4,1505.3,328.6,-0.7,1.8,2470.396,13.33,0.05,6.8
2020-05-15T01:04:03,42.805,6.029,0.032,0.048,0.037,107.0,108.0,103.0,13.4,1505.3,325.5,-0.8,1.8,2470.449,13.31,0.057,33.7
2020-05-15T01:07:03,42.805,6.029,0.004,0.022,-0.044,105.0,107.0,101.0,13.4,1505.3,324.6,-0.7,1.8,2470.432,13.32,0.022,10.3
2020-05-15T01:10:03,42.805,6.029,-0.024,0.025,-0.007,105.0,107.0,100.0,13.4,1505.3,326.3,-0.7,1.8,2470.468,13.33,0.034,316.2
2020-05-15T01:13:03,42.805,6.029,0.019,0.035,-0.001,105.0,107.0,104.0,13.4,1505.3,325.3,-0.7,1.8,2470.379,13.33,0.039,28.5
2020-05-15T01:16:03,42.805,6.029,0.025,0.015,-0.003,103.0,108.0,103.0,13.3,1505.3,328.6,-0.7,1.8,2470.427,13.33,0.029,59.0
2020-05-15T01:19:03,42.805,6.029,0.021,0.02,0.002,105.0,108.0,101.0,13.4,1505.3,323.8,-0.7,1.9,2470.402,13.33,0.028,46.4
2020-05-15T01:22:03,42.805,6.029,0.027,0.045,0.006,105.0,109.0,102.0,13.4,1505.3,323.1,-0.7,1.8,2470.405,13.33,0.052,31.0
2020-05-15T01:25:03,42.805,6.029,0.025,0.04,-0.004,105.0,106.0,103.0,13.4,1505.3,326.3,-0.7,1.8,2470.364,13.33,0.047,32.0
2020-05-15T01:28:03,42.805,6.029,-0.016,0.029,-0.044,105.0,107.0,102.0,13.3,1505.3,324.7,-0.7,1.8,2470.405,13.33,0.033,331.1
2020-05-15T01:31:03,42.805,6.029,0.041,0.037,0.023,104.0,108.0,103.0,13.4,1505.3,327.7,-0.7,1.8,2470.419,13.33,0.055,47.9
2020-05-15T01:34:03,42.805,6.029,0.037,0.035,0.032,105.0,108.0,102.0,13.4,1505.3,328.4,-0.7,1.8,2470.405,13.33,0.05,46.6
2020-05-15T01:37:03,42.805,6.029,0.049,0.028,0.036,103.0,109.0,101.0,13.3,1505.4,328.4,-0.7,1.8,2470.412,13.34,0.056,60.3
2020-05-15T01:40:03,42.805,6.029,0.001,0.02,0.008,105.0,108.0,102.0,13.4,1505.3,327.3,-0.7,1.8,2470.422,13.33,0.02,2.9
2020-05-15T01:43:03,42.805,6.029,0.017,0.033,-0.009,105.0,108.0,102.0,13.4,1505.3,325.6,-0.7,1.9,2470.43,13.33,0.037,27.3
2020-05-15T01:46:03,42.805,6.029,0.045,0.024,0.028,105.0,108.0,103.0,13.4,1505.3,326.6,-0.7,1.8,2470.363,13.33,0.051,61.9
2020-05-15T01:49:03,42.805,6.029,0.017,0.025,0.032,106.0,107.0,101.0,13.3,1505.3,326.2,-0.7,1.8,2470.37,13.33,0.03,34.2
2020-05-15T01:52:03,42.805,6.029,0.009,0.019,-0.004,106.0,107.0,101.0,13.4,1505.3,323.7,-0.7,1.8,2470.422,13.33,0.021,25.3
2020-05-15T01:55:03,42.805,6.029,0.02,0.037,0.012,104.0,108.0,102.0,13.4,1505.3,325.1,-0.7,1.8,2470.414,13.33,0.042,28.4
2020-05-15T01:58:03,42.805,6.029,0.017,0.022,-0.011,103.0,107.0,102.0,13.4,1505.3,325.5,-0.7,1.9,2470.372,13.33,0.027,37.7
2020-05-15T02:04:03,42.805,6.029,-0.006,0.032,-0.016,104.0,107.0,102.0,13.3,1505.3,328.7,-0.7,1.8,2470.467,13.32,0.032,349.4
2020-05-15T02:07:03,42.805,6.029,-0.018,0.014,-0.039,104.0,106.0,102.0,13.3,1505.3,326.5,-0.7,1.9,2470.436,13.32,0.022,307.9
2020-05-15T02:10:03,42.805,6.029,-0.019,0.005,-0.023,103.0,108.0,101.0,13.3,1505.3,326.7,-0.7,1.8,2470.426,13.33,0.019,284.7
2020-05-15T02:13:03,42.805,6.029,-0.018,0.039,-0.015,102.0,108.0,101.0,13.3,1505.3,327.9,-0.8,1.8,2470.414,13.33,0.042,335.2
2020-05-15T02:16:03,42.805,6.029,0.0,0.01,-0.042,105.0,107.0,101.0,13.4,1505.3,326.2,-0.7,1.8,2470.403,13.33,0.01,0.0
2020-05-15T02:19:03,42.805,6.029,0.002,0.023,-0.028,102.0,108.0,101.0,13.4,1505.3,327.9,-0.7,1.8,2470.445,13.33,0.023,5.0
2020-05-15T02:22:03,42.805,6.029,0.035,0.045,-0.02,104.0,106.0,102.0,13.3,1505.3,326.5,-0.7,1.8,2470.425,13.33,0.057,37.9
2020-05-15T02:25:03,42.805,6.029,-0.003,0.036,-0.055,104.0,108.0,101.0,13.3,1505.3,327.2,-0.7,1.8,2470.418,13.33,0.036,355.2
2020-05-15T02:28:03,42.805,6.029,-0.006,0.037,-0.054,102.0,108.0,101.0,13.3,1505.3,323.0,-0.7,1.8,2470.412,13.33,0.037,350.8
2020-05-15T02:31:03,42.805,6.029,-0.022,0.034,-0.016,105.0,107.0,101.0,13.4,1505.4,326.8,-0.7,1.8,2470.372,13.34,0.04,327.1
2020-05-15T02:34:03,42.805,6.029,0.0,0.023,-0.029,104.0,108.0,101.0,13.3,1505.4,324.7,-0.7,1.8,2470.416,13.34,0.023,0.0
2020-05-15T02:37:03,42.805,6.029,-0.017,0.025,-0.039,104.0,108.0,100.0,13.3,1505.4,326.1,-0.7,1.8,2470.408,13.34,0.03,325.8
2020-05-15T02:40:03,42.805,6.029,0.002,0.016,-0.04,104.0,106.0,101.0,13.4,1505.4,325.0,-0.7,1.8,2470.421,13.34,0.016,7.1
2020-05-15T02:43:03,42.805,6.029,-0.018,0.006,-0.043,104.0,107.0,101.0,13.4,1505.4,326.4,-0.7,1.8,2470.393,13.34,0.018,288.4
2020-05-15T02:46:03,42.805,6.029,-0.019,0.041,-0.052,104.0,108.0,102.0,13.4,1505.4,323.5,-0.7,1.8,2470.375,13.34,0.045,335.1
2020-05-15T02:49:03,42.805,6.029,0.006,0.014,-0.032,104.0,109.0,101.0,13.4,1505.4,327.3,-0.7,1.8,2470.384,13.34,0.015,23.2
2020-05-15T02:52:03,42.805,6.029,0.017,0.033,-0.025,103.0,108.0,101.0,13.3,1505.4,327.8,-0.7,1.8,2470.366,13.34,0.037,27.3
2020-05-15T02:55:03,42.805,6.029,-0.009,0.029,0.005,103.0,110.0,102.0,13.3,1505.4,325.8,-0.7,1.8,2470.393,13.34,0.03,342.8
2020-05-15T02:58:03,42.805,6.029,0.014,0.048,0.0,104.0,109.0,102.0,13.4,1505.4,327.4,-0.7,1.9,2470.396,13.34,0.05,16.3
2020-05-15T03:04:03,42.805,6.029,0.01,0.019,-0.03,104.0,108.0,102.0,13.4,1505.3,326.7,-0.7,1.8,2470.432,13.32,0.021,27.8
2020-05-15T03:07:03,42.805,6.029,0.005,0.022,-0.014,104.0,109.0,101.0,13.3,1505.3,328.6,-0.7,1.8,2470.418,13.32,0.022,12.8
2020-05-15T03:10:03,42.805,6.029,-0.008,0.034,-0.042,104.0,107.0,101.0,13.4,1505.3,327.4,-0.7,1.8,2470.402,13.33,0.034,346.8
2020-05-15T03:13:03,42.805,6.029,-0.005,0.032,-0.036,104.0,108.0,103.0,13.3,1505.3,325.6,-0.7,1.8,2470.411,13.33,0.032,351.1
2020-05-15T03:16:03,42.805,6.029,-0.02,0.022,-0.071,103.0,109.0,100.0,13.3,1505.3,328.2,-0.7,1.9,2470.372,13.33,0.029,317.7
2020-05-15T03:19:03,42.805,6.029,-0.005,0.019,-0.021,104.0,107.0,101.0,13.3,1505.3,326.1,-0.7,1.8,2470.377,13.33,0.019,345.3
2020-05-15T03:22:03,42.805,6.029,-0.021,0.029,-0.022,104.0,107.0,102.0,13.4,1505.3,328.1,-0.7,1.8,2470.411,13.33,0.035,324.1
2020-05-15T03:25:03,42.805,6.029,0.004,0.004,0.005,102.0,108.0,100.0,13.4,1505.4,323.8,-0.7,1.8,2470.42,13.34,0.005,45.0
2020-05-15T03:28:03,42.805,6.029,0.018,0.037,-0.004,104.0,110.0,101.0,13.3,1505.4,325.4,-0.7,1.9,2470.426,13.34,0.041,25.9
2020-05-15T03:31:03,42.805,6.029,0.003,0.024,-0.026,103.0,108.0,103.0,13.4,1505.4,323.5,-0.7,1.8,2470.435,13.34,0.024,7.1
2020-05-15T03:34:03,42.805,6.029,0.008,0.042,0.008,105.0,109.0,101.0,13.3,1505.4,324.9,-0.7,1.8,2470.401,13.34,0.042,10.8
2020-05-15T03:37:03,42.805,6.029,0.026,0.04,-0.006,103.0,109.0,101.0,13.3,1505.4,327.3,-0.7,1.9,2470.385,13.34,0.047,33.0
2020-05-15T03:40:03,42.805,6.029,0.0,0.023,-0.006,105.0,110.0,101.0,13.4,1505.4,326.2,-0.7,1.8,2470.349,13.34,0.023,0.0
2020-05-15T03:43:03,42.805,6.029,0.007,0.016,-0.046,103.0,110.0,101.0,13.3,1505.4,326.9,-0.7,1.8,2470.38,13.34,0.017,23.6
2020-05-15T03:46:03,42.805,6.029,-0.003,0.049,-0.005,104.0,108.0,102.0,13.4,1505.4,324.3,-0.7,1.9,2470.367,13.34,0.049,356.5
2020-05-15T03:49:03,42.805,6.029,-0.01,0.027,-0.054,105.0,109.0,101.0,13.4,1505.4,325.5,-0.7,1.8,2470.418,13.34,0.028,339.7
2020-05-15T03:52:03,42.805,6.029,0.039,0.038,0.005,103.0,110.0,103.0,13.4,1505.4,324.6,-0.7,1.9,2470.4,13.34,0.054,45.7
2020-05-15T03:55:03,42.805,6.029,0.012,0.024,0.002,105.0,109.0,102.0,13.3,1505.4,323.5,-0.7,1.8,2470.371,13.34,0.026,26.6
2020-05-15T03:58:03,42.805,6.029,-0.011,0.034,-0.042,104.0,110.0,101.0,13.4,1505.3,325.0,-0.8,1.8,2470.409,13.33,0.035,342.1
2020-05-15T04:04:03,42.805,6.029,0.022,0.021,0.011,103.0,110.0,101.0,13.3,1505.3,324.1,-0.7,1.8,2470.44,13.31,0.03,46.3
2020-05-15T04:07:03,42.805,6.029,0.013,0.048,-0.011,103.0,109.0,101.0,13.4,1505.3,326.8,-0.7,1.8,2470.434,13.32,0.049,15.2
2020-05-15T04:10:03,42.805,6.029,0.031,0.029,0.009,103.0,109.0,102.0,13.3,1505.3,325.1,-0.7,1.8,2470.415,13.33,0.042,46.9
2020-05-15T04:13:03,42.805,6.029,0.036,0.037,-0.009,103.0,107.0,101.0,13.4,1505.3,326.0,-0.7,1.9,2470.37,13.33,0.051,44.2
2020-05-15T04:16:03,42.805,6.029,0.006,0.045,-0.01,103.0,107.0,102.0,13.3,1505.3,324.9,-0.7,1.8,2470.417,13.33,0.045,7.6
2020-05-15T04:19:03,42.805,6.029,0.023,0.031,-0.019,103.0,110.0,101.0,13.4,1505.3,326.5,-0.7,1.8,2470.401,13.33,0.038,36.6
2020-05-15T04:22:03,42.805,6.029,0.006,0.028,-0.021,104.0,109.0,101.0,13.4,1505.3,327.6,-0.7,1.8,2470.417,13.33,0.028,12.1
2020-05-15T04:25:03,42.805,6.029,-0.007,0.01,-0.041,104.0,109.0,101.0,13.3,1505.4,324.5,-0.7,1.8,2470.36,13.34,0.012,325.0
2020-05-15T04:28:03,42.805,6.029,0.006,0.032,-0.043,105.0,110.0,102.0,13.3,1505.4,324.4,-0.7,1.8,2470.389,13.34,0.032,10.6
2020-05-15T04:31:03,42.805,6.029,0.018,0.039,-0.033,105.0,109.0,103.0,13.3,1505.4,325.8,-0.7,1.8,2470.366,13.34,0.042,24.8
2020-05-15T04:34:03,42.805,6.029,0.034,0.03,-0.018,104.0,110.0,101.0,13.4,1505.3,324.2,-0.7,1.8,2470.409,13.33,0.045,48.6
2020-05-15T04:37:03,42.805,6.029,-0.002,0.024,-0.024,104.0,108.0,101.0,13.4,1505.4,326.5,-0.7,1.8,2470.385,13.34,0.024,355.2
2020-05-15T04:40:03,42.805,6.029,0.03,0.03,0.003,104.0,109.0,102.0,13.4,1505.4,326.0,-0.7,1.8,2470.4,13.34,0.042,45.0
2020-05-15T04:43:03,42.805,6.029,0.023,0.024,0.037,103.0,109.0,102.0,13.4,1505.4,324.0,-0.7,1.8,2470.388,13.34,0.033,43.8
2020-05-15T04:46:03,42.805,6.029,0.013,0.017,-0.002,104.0,110.0,101.0,13.4,1505.4,325.9,-0.7,1.8,2470.388,13.34,0.021,37.4
2020-05-15T04:49:03,42.805,6.029,-0.01,0.023,-0.05,103.0,109.0,102.0,13.3,1505.4,326.6,-0.7,1.8,2470.355,13.34,0.025,336.5
2020-05-15T04:52:03,42.805,6.029,0.024,0.047,-0.009,104.0,109.0,101.0,13.4,1505.4,325.9,-0.7,1.8,2470.378,13.34,0.052,27.0
2020-05-15T04:55:03,42.805,6.029,0.022,0.027,-0.014,104.0,109.0,102.0,13.3,1505.4,324.8,-0.7,1.8,2470.365,13.34,0.034,39.2
2020-05-15T04:58:03,42.805,6.029,0.02,0.04,-0.01,104.0,110.0,101.0,13.4,1505.4,326.5,-0.7,1.9,2470.397,13.34,0.044,26.6
2020-05-15T05:04:03,42.805,6.029,0.016,0.047,-0.005,104.0,108.0,102.0,13.4,1505.3,324.6,-0.8,1.8,2470.387,13.32,0.049,18.8
2020-05-15T05:07:03,42.805,6.029,0.02,0.025,-0.008,104.0,111.0,101.0,13.4,1505.3,326.5,-0.7,1.8,2470.377,13.32,0.032,38.7
2020-05-15T05:10:03,42.805,6.029,-0.001,0.017,-0.061,105.0,109.0,102.0,13.3,1505.3,327.3,-0.7,1.9,2470.333,13.33,0.017,356.6
2020-05-15T05:13:03,42.805,6.029,0.02,0.033,-0.013,103.0,110.0,104.0,13.4,1505.3,327.4,-0.7,1.8,2470.377,13.33,0.038,31.2
2020-05-15T05:16:03,42.805,6.029,0.019,0.033,0.024,104.0,111.0,102.0,13.4,1505.3,326.0,-0.7,1.8,2470.399,13.33,0.038,29.9
2020-05-15T05:19:03,42.805,6.029,-0.01,0.019,-0.035,104.0,110.0,102.0,13.4,1505.3,326.9,-0.7,1.8,2470.382,13.33,0.021,332.2
2020-05-15T05:22:03,42.805,6.029,-0.015,0.037,-0.02,105.0,111.0,101.0,13.3,1505.3,326.3,-0.7,1.8,2470.395,13.33,0.039,337.9
2020-05-15T05:25:03,42.805,6.029,-0.004,0.041,-0.043,105.0,111.0,101.0,13.4,1505.3,327.2,-0.7,1.8,2470.398,13.33,0.041,354.4
2020-05-15T05:28:03,42.805,6.029,0.0,0.035,-0.025,106.0,110.0,101.0,13.3,1505.3,326.5,-0.7,1.9,2470.357,13.33,0.035,0.0
2020-05-15T05:31:03,42.805,6.029,0.005,0.034,-0.013,104.0,109.0,101.0,13.4,1505.3,328.5,-0.7,1.9,2470.379,13.33,0.034,8.4
2020-05-15T05:34:03,42.805,6.029,0.0,0.021,-0.031,104.0,110.0,101.0,13.3,1505.3,323.6,-0.7,1.8,2470.394,13.33,0.021,0.0
2020-05-15T05:37:03,42.805,6.029,-0.024,0.031,-0.022,104.0,111.0,100.0,13.3,1505.3,323.9,-0.7,1.8,2470.354,13.33,0.039,322.3
2020-05-15T05:40:03,42.805,6.029,-0.003,0.041,-0.037,104.0,110.0,100.0,13.4,1505.3,326.2,-0.7,1.8,2470.336,13.33,0.041,355.8
2020-05-15T05:43:03,42.805,6.029,0.003,0.037,0.004,105.0,110.0,101.0,13.4,1505.3,324.0,-0.7,1.9,2470.335,13.33,0.037,4.6
2020-05-15T05:46:03,42.805,6.029,0.01,0.021,-0.022,105.0,110.0,101.0,13.4,1505.3,326.0,-0.7,1.8,2470.315,13.33,0.023,25.5
2020-05-15T05:49:03,42.805,6.029,0.001,0.015,-0.037,105.0,110.0,101.0,13.4,1505.3,324.7,-0.7,1.8,2470.334,13.33,0.015,3.8
2020-05-15T05:52:03,42.805,6.029,0.001,0.026,-0.039,103.0,109.0,102.0,13.4,1505.3,326.2,-0.7,1.9,2470.391,13.33,0.026,2.2
2020-05-15T05:55:03,42.805,6.029,0.022,0.021,-0.006,103.0,110.0,101.0,13.4,1505.3,327.2,-0.7,1.8,2470.362,13.33,0.03,46.3
2020-05-15T05:58:03,42.805,6.029,0.007,0.034,-0.043,104.0,109.0,102.0,13.4,1505.3,324.6,-0.7,1.8,2470.348,13.33,0.034,11.6
2020-05-15T06:04:03,42.805,6.029,0.012,0.037,-0.022,104.0,109.0,101.0,13.3,1505.3,323.5,-0.7,1.9,2470.384,13.31,0.038,18.0
2020-05-15T06:07:03,42.805,6.029,0.019,0.026,0.0,103.0,108.0,101.0,13.4,1505.3,325.9,-0.7,1.8,2470.388,13.32,0.032,36.2
2020-05-15T06:10:03,42.805,6.029,0.001,0.029,-0.046,103.0,110.0,103.0,13.4,1505.3,322.9,-0.7,1.8,2470.389,13.32,0.029,2.0
2020-05-15T06:13:03,42.805,6.029,0.008,0.025,-0.028,105.0,109.0,101.0,13.4,1505.3,326.0,-0.7,1.8,2470.353,13.32,0.026,17.7
2020-05-15T06:16:03,42.805,6.029,-0.025,0.017,-0.06,105.0,110.0,101.0,13.4,1505.3,323.8,-0.7,1.9,2470.362,13.33,0.03,304.2
2020-05-15T06:19:03,42.805,6.029,0.011,0.021,-0.012,104.0,111.0,102.0,13.3,1505.3,325.4,-0.7,1.9,2470.364,13.33,0.023,27.6
2020-05-15T06:22:03,42.805,6.029,0.006,0.02,-0.038,105.0,109.0,100.0,13.4,1505.3,324.1,-0.7,1.8,2470.354,13.33,0.02,16.7
2020-05-15T06:25:03,42.805,6.029,0.009,0.03,-0.022,104.0,109.0,102.0,13.3,1505.3,327.3,-0.7,1.8,2470.299,13.33,0.031,16.7
2020-05-15T06:28:03,42.805,6.029,-0.025,0.013,-0.038,105.0,110.0,102.0,13.4,1505.3,325.4,-0.7,1.8,2470.408,13.33,0.028,297.5
2020-05-15T06:31:03,42.805,6.029,-0.003,0.035,-0.03,105.0,109.0,102.0,13.3,1505.3,327.8,-0.7,1.8,2470.334,13.33,0.035,355.1
2020-05-15T06:34:03,42.805,6.029,0.013,0.021,-0.022,105.0,108.0,102.0,13.4,1505.3,327.6,-0.7,1.8,2470.354,13.33,0.024,31.8
2020-05-15T06:37:03,42.805,6.029,0.014,0.016,-0.012,104.0,109.0,102.0,13.4,1505.3,325.3,-0.7,1.8,2470.329,13.33,0.021,41.2
2020-05-15T06:40:03,42.805,6.029,0.012,0.021,-0.026,106.0,110.0,102.0,13.4,1505.3,326.9,-0.7,1.8,2470.325,13.33,0.024,29.7
2020-05-15T06:43:03,42.805,6.029,-0.001,0.018,-0.009,105.0,110.0,103.0,13.4,1505.3,323.6,-0.7,1.8,2470.333,13.33,0.018,356.8
2020-05-15T06:46:03,42.805,6.029,-0.006,0.032,-0.049,104.0,110.0,100.0,13.4,1505.3,323.8,-0.7,1.8,2470.332,13.33,0.032,349.4
2020-05-15T06:49:03,42.805,6.029,0.021,0.013,-0.045,104.0,111.0,102.0,13.4,1505.3,323.9,-0.7,1.8,2470.316,13.33,0.024,58.2
2020-05-15T06:52:03,42.805,6.029,0.026,0.01,-0.053,105.0,111.0,101.0,13.4,1505.3,325.9,-0.7,1.8,2470.347,13.33,0.027,69.0
2020-05-15T06:55:03,42.805,6.029,-0.008,0.025,-0.05,106.0,110.0,102.0,13.3,1505.3,327.7,-0.7,1.8,2470.322,13.33,0.026,342.3
2020-05-15T06:58:03,42.805,6.029,0.005,0.013,-0.056,104.0,111.0,100.0,13.4,1505.3,323.8,-0.7,1.8,2470.334,13.33,0.013,21.0
2020-05-15T07:04:03,42.805,6.029,-0.016,0.019,-0.038,105.0,110.0,101.0,13.4,1505.3,324.8,-0.7,1.8,2470.373,13.31,0.024,319.9
2020-05-15T07:07:03,42.805,6.029,0.0,0.025,-0.031,103.0,110.0,101.0,13.4,1505.3,324.8,-0.7,1.8,2470.385,13.32,0.025,0.0
2020-05-15T07:10:03,42.805,6.029,0.025,0.036,-0.029,105.0,109.0,103.0,13.4,1505.3,325.8,-0.7,1.8,2470.314,13.32,0.043,34.8
2020-05-15T07:13:03,42.805,6.029,0.013,0.021,-0.002,105.0,107.0,101.0,13.3,1505.3,326.5,-0.7,1.8,2470.314,13.32,0.024,31.8
2020-05-15T07:16:03,42.805,6.029,0.024,0.01,-0.018,104.0,108.0,101.0,13.4,1505.3,323.4,-0.7,1.8,2470.342,13.33,0.026,67.4
2020-05-15T07:19:03,42.805,6.029,0.032,0.022,-0.024,104.0,109.0,101.0,13.3,1505.3,326.8,-0.7,1.8,2470.351,13.33,0.038,55.5
2020-05-15T07:22:03,42.805,6.029,0.011,0.035,-0.017,104.0,107.0,101.0,13.4,1505.3,325.3,-0.7,1.8,2470.35,13.33,0.036,17.4
2020-05-15T07:25:03,42.805,6.029,0.016,0.023,-0.009,105.0,109.0,102.0,13.4,1505.3,324.5,-0.7,1.8,2470.322,13.33,0.028,34.8
2020-05-15T07:28:03,42.805,6.029,0.012,0.028,-0.015,103.0,109.0,102.0,13.4,1505.3,323.0,-0.7,1.9,2470.336,13.33,0.03,23.2
2020-05-15T07:31:03,42.805,6.029,0.021,0.039,-0.011,105.0,109.0,101.0,13.3,1505.3,323.7,-0.7,1.8,2470.32,13.33,0.044,28.3
2020-05-15T07:34:03,42.805,6.029,0.016,0.03,-0.014,105.0,108.0,103.0,13.4,1505.3,322.8,-0.7,1.8,2470.314,13.33,0.034,28.1
2020-05-15T07:37:03,42.805,6.029,0.048,0.022,-0.025,104.0,107.0,101.0,13.4,1505.3,323.6,-0.7,1.8,2470.308,13.33,0.052,65.4
2020-05-15T07:40:03,42.805,6.029,-0.004,0.026,-0.04,105.0,109.0,101.0,13.4,1505.3,324.7,-0.7,1.8,2470.282,13.33,0.026,351.3
2020-05-15T07:43:03,42.805,6.029,0.009,0.022,-0.005,104.0,108.0,100.0,13.4,1505.3,327.5,-0.7,1.8,2470.312,13.33,0.023,22.2
2020-05-15T07:46:03,42.805,6.029,0.001,0.042,-0.015,104.0,108.0,101.0,13.3,1505.3,324.9,-0.7,1.8,2470.316,13.33,0.042,1.4
2020-05-15T07:49:03,42.805,6.029,0.002,0.024,-0.05,104.0,108.0,100.0,13.3,1505.3,323.2,-0.7,1.8,2470.291,13.33,0.024,4.8
2020-05-15T07:52:03,42.805,6.029,0.003,0.008,-0.062,104.0,109.0,100.0,13.4,1505.3,324.3,-0.7,1.8,2470.286,13.33,0.008,20.6
2020-05-15T07:55:03,42.805,6.029,0.02,0.019,-0.014,104.0,108.0,100.0,13.4,1505.3,328.1,-0.7,1.8,2470.3,13.33,0.027,46.5
2020-05-15T07:58:03,42.805,6.029,0.024,0.009,-0.033,103.0,108.0,102.0,13.4,1505.3,325.6,-0.7,1.8,2470.282,13.33,0.025,69.4
2020-05-15T08:04:03,42.805,6.029,0.005,0.012,-0.032,104.0,108.0,102.0,13.3,1505.3,325.1,-0.8,1.8,2470.362,13.31,0.013,22.6
2020-05-15T08:07:03,42.805,6.029,0.009,0.014,-0.055,104.0,106.0,102.0,13.3,1505.3,324.9,-0.7,1.8,2470.317,13.32,0.016,32.7
2020-05-15T08:10:03,42.805,6.029,0.023,0.003,-0.022,104.0,107.0,101.0,13.3,1505.3,323.3,-0.7,1.9,2470.304,13.32,0.023,82.6
2020-05-15T08:13:03,42.805,6.029,0.043,0.003,-0.028,103.0,107.0,100.0,13.4,1505.3,326.3,-0.7,1.9,2470.339,13.32,0.043,86.0
2020-05-15T08:16:03,42.805,6.029,0.001,0.036,-0.011,104.0,107.0,101.0,13.3,1505.3,327.8,-0.7,1.8,2470.31,13.33,0.036,1.6
2020-05-15T08:19:03,42.805,6.029,0.007,0.022,-0.021,103.0,107.0,101.0,13.4,1505.3,324.7,-0.7,1.8,2470.298,13.33,0.023,17.6
2020-05-15T08:22:03,42.805,6.029,0.006,0.018,-0.016,105.0,108.0,101.0,13.4,1505.3,327.4,-0.7,1.8,2470.318,13.33,0.018,18.4
2020-05-15T08:25:03,42.805,6.029,0.002,0.022,-0.034,104.0,107.0,101.0,13.4,1505.3,326.4,-0.7,1.8,2470.272,13.33,0.022,5.2
2020-05-15T08:28:03,42.805,6.029,0.004,0.014,-0.042,103.0,107.0,102.0,13.4,1505.3,326.5,-0.7,1.8,2470.284,13.33,0.014,15.9
2020-05-15T08:31:03,42.805,6.029,0.023,0.034,-0.02,105.0,107.0,102.0,13.4,1505.3,323.4,-0.7,1.8,2470.307,13.33,0.041,34.1
2020-05-15T08:34:03,42.805,6.029,0.02,0.028,-0.018,104.0,106.0,102.0,13.4,1505.3,325.1,-0.7,1.8,2470.31,13.33,0.034,35.5
2020-05-15T08:37:03,42.805,6.029,0.011,0.015,0.002,104.0,107.0,100.0,13.4,1505.3,325.5,-0.7,1.8,2470.293,13.33,0.018,36.3
2020-05-15T08:40:03,42.805,6.029,0.007,0.027,0.002,104.0,107.0,101.0,13.3,1505.3,322.8,-0.7,1.8,2470.25,13.33,0.027,14.5
2020-05-15T08:43:03,42.805,6.029,0.002,0.03,-0.009,104.0,109.0,102.0,13.3,1505.3,327.6,-0.7,1.8,2470.299,13.33,0.03,3.8
2020-05-15T08:46:03,42.805,6.029,-0.004,0.033,-0.034,103.0,108.0,101.0,13.4,1505.3,325.5,-0.7,1.8,2470.317,13.33,0.033,353.1
2020-05-15T08:49:03,42.805,6.029,0.007,0.032,-0.021,105.0,106.0,101.0,13.4,1505.3,325.1,-0.7,1.8,2470.261,13.33,0.032,12.3
2020-05-15T08:52:03,42.805,6.029,0.041,0.004,-0.015,103.0,108.0,101.0,13.4,1505.3,325.1,-0.7,1.8,2470.282,13.33,0.041,84.4
2020-05-15T08:55:03,42.805,6.029,-0.007,0.024,-0.03,102.0,107.0,102.0,13.3,1505.3,328.4,-0.7,1.8,2470.309,13.33,0.025,343.7
2020-05-15T08:58:03,42.805,6.029,0.011,0.013,-0.039,103.0,107.0,101.0,13.3,1505.3,324.9,-0.7,1.8,2470.261,13.33,0.017,40.2
2020-05-15T09:04:03,42.805,6.029,0.014,0.017,-0.015,103.0,106.0,101.0,13.4,1505.3,323.8,-0.8,1.8,2470.316,13.32,0.022,39.5
2020-05-15T09:07:03,42.805,6.029,-0.01,0.006,-0.045,103.0,107.0,102.0,13.3,1505.3,322.8,-0.8,1.8,2470.311,13.32,0.011,301.0
2020-05-15T09:10:03,42.805,6.029,-0.001,0.046,-0.053,103.0,106.0,101.0,13.4,1505.3,325.8,-0.7,1.8,2470.319,13.33,0.046,358.8
2020-05-15T09:13:03,42.805,6.029,0.015,0.032,-0.031,104.0,108.0,101.0,13.4,1505.3,323.7,-0.7,1.8,2470.309,13.33,0.035,25.1
2020-05-15T09:16:03,42.805,6.029,-0.019,0.024,-0.037,104.0,107.0,101.0,13.3,1505.3,328.0,-0.7,1.8,2470.276,13.33,0.03,321.6
2020-05-15T09:19:03,42.805,6.029,-0.016,0.034,-0.027,105.0,107.0,100.0,13.3,1505.3,326.1,-0.7,1.8,2470.289,13.33,0.037,334.8
2020-05-15T09:22:03,42.805,6.029,0.017,0.001,-0.047,103.0,107.0,104.0,13.4,1505.3,323.5,-0.7,1.8,2470.261,13.33,0.017,86.6
2020-05-15T09:25:03,42.805,6.029,-0.003,0.016,-0.034,104.0,105.0,101.0,13.4,1505.3,327.6,-0.7,1.8,2470.242,13.33,0.016,349.4
2020-05-15T09:28:03,42.805,6.029,0.005,0.04,-0.01,103.0,107.0,100.0,13.3,1505.3,325.2,-0.7,1.8,2470.268,13.33,0.04,7.1
2020-05-15T09:31:03,42.805,6.029,0.007,-0.006,-0.04,103.0,106.0,101.0,13.4,1505.3,328.4,-0.7,1.8,2470.293,13.33,0.009,130.6
2020-05-15T09:34:03,42.805,6.029,0.006,0.015,-0.054,104.0,107.0,102.0,13.3,1505.3,326.3,-0.7,1.8,2470.282,13.33,0.016,21.8
2020-05-15T09:37:03,42.805,6.029,-0.011,0.0,-0.036,103.0,106.0,101.0,13.4,1505.3,326.9,-0.7,1.9,2470.242,13.33,0.011,270.0
2020-05-15T09:40:03,42.805,6.029,-0.002,0.02,-0.005,102.0,107.0,101.0,13.3,1505.4,327.1,-0.7,1.8,2470.35,13.34,0.02,354.3
2020-05-15T09:43:03,42.805,6.029,-0.026,0.016,-0.058,103.0,105.0,101.0,13.4,1505.4,325.5,-0.7,1.8,2470.263,13.34,0.03,301.6
2020-05-15T09:46:03,42.805,6.029,-0.003,0.014,-0.028,104.0,106.0,101.0,13.4,1505.4,326.6,-0.7,1.8,2470.278,13.34,0.014,347.9
2020-05-15T09:49:03,42.805,6.029,-0.023,0.018,-0.057,103.0,106.0,101.0,13.4,1505.3,328.5,-0.7,1.8,2470.263,13.33,0.029,308.0
2020-05-15T09:52:03,42.805,6.029,-0.005,0.009,-0.046,102.0,106.0,101.0,13.3,1505.3,323.8,-0.7,1.8,2470.3,13.33,0.01,330.9
2020-05-15T09:55:03,42.805,6.029,0.009,0.011,-0.029,104.0,106.0,102.0,13.3,1505.3,326.8,-0.7,1.8,2470.273,13.33,0.014,39.3
2020-05-15T09:58:03,42.805,6.029,0.006,0.016,-0.042,104.0,106.0,100.0,13.4,1505.3,327.4,-0.7,1.9,2470.266,13.33,0.017,20.6
2020-05-15T10:04:03,42.805,6.029,0.014,0.008,-0.017,103.0,104.0,101.0,13.4,1505.3,325.4,-0.7,1.8,2470.341,13.32,0.016,60.3